Weather reports worldwide

Advertisment
Tulloch Bridge, United Kingdom (3047): temperature & dewpoint: 30.06.2020 06:00:00 - 06.07.2020 06:00:00 (BST)Tulloch Bridge, United Kingdom (3047): temperature -20cm & temperature -100cm: 30.06.2020 06:00:00 - 06.07.2020 06:00:00 (BST)Tulloch Bridge, United Kingdom (3047): wind speed & gusts: 30.06.2020 06:00:00 - 06.07.2020 06:00:00 (BST)Tulloch Bridge, United Kingdom (3047): wind direction: 30.06.2020 06:00:00 - 06.07.2020 06:00:00 (BST)Tulloch Bridge, United Kingdom (3047): reduced air pressure: 30.06.2020 06:00:00 - 06.07.2020 06:00:00 (BST)Tulloch Bridge, United Kingdom (3047): visibility: 30.06.2020 06:00:00 - 06.07.2020 06:00:00 (BST)Tulloch Bridge, United Kingdom (3047): precipitation: 30.06.2020 06:00:00 - 06.07.2020 06:00:00 (BST)
Date & Time tt [°C] td [°C] tt -20cm [°C] tt -100cm [°C] ff [km/h] ff [kn] fx [km/h] fx [kn] dd ppp [hPa] vv [km] rr [mm]
06.07.2020 06:00:00 9,6 6,6 - - 15 8 - - W 1011,4 50 0,0
06.07.2020 05:00:00 9,4 7,1 - - 21 11 - - W 1010,1 50 0,0
06.07.2020 04:00:00 9,3 7,1 - - 18 10 - - W 1008,9 16 0,2
06.07.2020 03:00:00 9,6 6,7 - - 15 8 - - W 1007,6 50 0,0
06.07.2020 02:00:00 9,0 6,9 - - 11 6 - - W 1006,6 50 0,0
06.07.2020 01:00:00 9,0 7,7 - - 11 6 - - WNW 1005,6 45 0,0
06.07.2020 00:00:00 9,4 7,4 - - 13 7 - - W 1004,7 30 0,0
05.07.2020 23:00:00 9,3 6,7 - - 11 6 - - WNW 1003,7 50 0,0
05.07.2020 22:00:00 9,2 6,7 - - 11 6 48 26 WSW 1003,2 35 1,0
05.07.2020 21:00:00 9,5 7,3 - - 15 8 - - W 1002,0 10 1,2
05.07.2020 20:00:00 9,6 7,4 - - 15 8 - - WSW 1001,2 3,2 1,2
05.07.2020 19:00:00 10,6 8,2 - - 11 6 - - W 999,8 35 0,2
05.07.2020 18:00:00 10,8 7,5 - - 9 5 - - WSW 999,0 17 0,8
05.07.2020 17:00:00 10,0 7,6 - - 18 10 - - WNW 998,7 8 0,2
05.07.2020 16:00:00 11,9 6,5 - - 15 8 - - WNW 998,0 50 0,0
05.07.2020 15:00:00 10,1 7,7 - - 15 8 - - SW 998,0 22 0,8
05.07.2020 14:00:00 9,3 6,9 - - 13 7 - - SW 998,1 11 2,0
05.07.2020 13:00:00 11,4 7,0 - - 15 8 - - SSW 997,5 50 0,8
05.07.2020 12:00:00 11,0 6,4 - - 13 7 - - WSW 997,6 50 1,2
05.07.2020 11:00:00 11,6 6,0 - - 15 8 - - WSW 997,6 40 0,0
05.07.2020 10:00:00 9,7 6,7 14,2 13,2 13 7 - - SW 997,5 30 0,4
05.07.2020 09:00:00 9,6 7,8 - - 15 8 - - SW 997,2 9 1,0
05.07.2020 08:00:00 9,7 6,6 - - 8 4 - - WSW 996,5 20 0,2
05.07.2020 07:00:00 9,7 7,2 - - 15 8 46 25 NW 995,9 50 0,0
05.07.2020 06:00:00 9,9 8,1 - - 22 12 - - WNW 994,7 50 0,0
05.07.2020 05:00:00 9,7 8,7 - - 11 6 - - W 993,7 45 0,4
05.07.2020 04:00:00 9,6 8,5 - - 13 7 - - W 992,8 9 1,2
05.07.2020 03:00:00 9,9 9,4 - - 9 5 - - W 991,6 6 2,2
05.07.2020 02:00:00 9,8 9,5 - - 4 2 - - NNW 991,1 3,7 0,4
05.07.2020 01:00:00 9,7 9,3 - - 2 1 - - SE 991,8 4,5 1,6
05.07.2020 00:00:00 9,8 9,3 - - 5 3 - - E 992,8 4,2 2,8
04.07.2020 23:00:00 9,9 9,4 - - 5 3 - - ESE 994,1 4,2 3,0
04.07.2020 22:00:00 10,1 9,6 - - 5 3 - - SSW 996,7 4,4 2,4
04.07.2020 21:00:00 10,4 9,3 - - 2 1 - - SSE 997,9 10 0,8
04.07.2020 20:00:00 11,1 9,2 - - 4 2 - - SSW 999,5 45 0,0
04.07.2020 19:00:00 11,4 9,6 - - 5 3 - - NNW 1000,7 50 0,0
04.07.2020 18:00:00 11,6 10,3 - - 9 5 - - NW 1001,4 35 0,0
04.07.2020 17:00:00 10,4 9,1 - - 11 6 - - W 1002,4 4,7 2,6
04.07.2020 16:00:00 11,9 9,7 - - 9 5 - - WSW 1002,8 50 0,0
04.07.2020 15:00:00 11,6 10,0 - - 9 5 - - WSW 1003,1 50 0,4
04.07.2020 14:00:00 11,1 10,1 - - 4 2 - - WSW 1003,4 8 0,4
04.07.2020 13:00:00 11,3 9,6 - - 9 5 - - SW 1003,1 30 0,0
04.07.2020 12:00:00 10,5 9,3 - - 11 6 - - SSW 1003,7 29 0,0
04.07.2020 11:00:00 10,6 9,2 - - 11 6 - - SSW 1003,5 30 0,8
04.07.2020 10:00:00 10,1 9,0 14,7 13,4 8 4 - - SSW 1003,5 7 0,8
04.07.2020 09:00:00 10,8 8,1 - - 11 6 - - S 1003,3 45 0,0
04.07.2020 08:00:00 10,6 8,5 - - 9 5 - - S 1003,4 45 0,0
04.07.2020 07:00:00 9,1 8,8 - - 2 1 - - ESE 1003,9 35 0,0
04.07.2020 06:00:00 7,7 7,6 - - 4 2 - - ENE 1004,3 45 0,0
04.07.2020 05:00:00 7,3 7,2 - - 4 2 - - W 1004,6 45 0,0
04.07.2020 04:00:00 6,6 6,4 - - 4 2 - - ESE 1004,4 28 0,0
04.07.2020 03:00:00 7,5 7,3 - - 2 1 - - NNW 1004,3 40 0,0
04.07.2020 02:00:00 6,3 6,2 - - 2 1 - - NNW 1004,6 12 0,0
04.07.2020 01:00:00 7,5 7,4 - - 4 2 - - E 1004,8 26 0,0
04.07.2020 00:00:00 7,1 6,9 - - 2 1 - - ENE 1004,9 19 0,0
03.07.2020 23:00:00 7,3 6,6 - - 4 2 - - SSE 1004,6 14 0,0
03.07.2020 22:00:00 9,7 8,2 - - 5 3 - - NW 1004,0 45 0,0
03.07.2020 21:00:00 10,9 8,5 - - 11 6 - - NW 1003,9 50 0,0
03.07.2020 20:00:00 11,2 8,1 - - 11 6 - - WNW 1003,4 50 0,0
03.07.2020 19:00:00 10,8 8,0 - - 8 4 - - W 1003,4 50 0,0
03.07.2020 18:00:00 10,4 8,7 - - 15 8 - - WNW 1003,1 12 0,6
03.07.2020 17:00:00 11,1 8,9 - - 9 5 - - W 1002,7 12 1,0
03.07.2020 16:00:00 11,1 9,4 - - 8 4 - - W 1002,2 22 2,0
03.07.2020 15:00:00 11,3 8,4 - - 11 6 - - SW 1001,8 16 1,8
03.07.2020 14:00:00 12,1 10,3 - - 11 6 - - WNW 1001,9 22 0,2
03.07.2020 13:00:00 11,2 10,7 - - 11 6 - - S 1002,0 5 0,2
03.07.2020 12:00:00 11,1 10,2 - - 11 6 - - S 1002,1 9 0,0
03.07.2020 11:00:00 10,3 8,9 - - 18 10 - - S 1002,3 13 0,0
03.07.2020 10:00:00 9,3 8,4 15,2 13,4 9 5 - - SE 1002,8 6 0,2
03.07.2020 09:00:00 9,1 7,8 - - 9 5 - - ESE 1003,1 6 0,2
03.07.2020 08:00:00 8,7 6,7 - - 8 4 - - S 1003,8 27 0,2
03.07.2020 07:00:00 7,9 6,4 - - 11 6 - - ESE 1004,9 45 0,0
03.07.2020 06:00:00 7,4 6,3 - - 8 4 - - SE 1005,7 45 0,4
03.07.2020 05:00:00 7,1 6,0 - - 5 3 - - SE 1007,1 15 0,6
03.07.2020 04:00:00 7,3 5,8 - - 11 6 - - S 1008,1 30 0,2
03.07.2020 03:00:00 7,6 5,8 - - 11 6 - - SSW 1008,9 35 0,4
03.07.2020 02:00:00 7,9 5,2 - - 8 4 - - SW 1009,5 13 0,2
03.07.2020 01:00:00 8,3 3,5 - - 4 2 - - SW 1009,8 50 0,0
03.07.2020 00:00:00 8,7 2,8 - - 8 4 - - WSW 1010,2 50 0,0
02.07.2020 23:00:00 9,1 3,6 - - 15 8 - - W 1011,0 50 0,0
02.07.2020 22:00:00 9,5 4,2 - - 13 7 - - WNW 1011,1 50 0,0
02.07.2020 21:00:00 10,2 4,9 - - 15 8 - - W 1011,2 50 0,0
02.07.2020 20:00:00 11,7 5,9 - - 15 8 - - W 1011,2 35 0,0
02.07.2020 19:00:00 14,0 6,8 - - 8 4 - - SW 1010,6 40 0,0
02.07.2020 18:00:00 14,3 6,7 - - 9 5 - - W 1010,3 50 0,0
02.07.2020 17:00:00 14,1 7,3 - - 15 8 - - SSW 1010,5 45 0,0
02.07.2020 16:00:00 13,8 7,2 - - 9 5 - - W 1010,9 45 0,0
02.07.2020 15:00:00 13,9 6,6 - - 13 7 - - W 1010,8 50 0,0
02.07.2020 14:00:00 14,4 6,0 - - 11 6 - - S 1010,8 35 0,0
02.07.2020 13:00:00 13,3 5,9 - - 5 3 - - SW 1011,0 50 0,0
02.07.2020 12:00:00 13,5 7,5 - - 9 5 - - SW 1011,0 20 0,0
02.07.2020 11:00:00 12,1 7,2 - - 4 2 - - SSW 1011,1 40 0,0
02.07.2020 10:00:00 11,6 6,9 15,2 13,7 4 2 - - N 1011,0 29 0,0
02.07.2020 09:00:00 9,9 6,0 - - 5 3 - - NNW 1011,2 40 0,0
02.07.2020 08:00:00 9,1 6,1 - - 4 2 - - NNE 1011,0 45 0,0
02.07.2020 07:00:00 7,6 6,3 - - 0 0 - - N 1010,8 50 0,0
02.07.2020 06:00:00 4,6 4,5 - - 2 1 - - N 1010,7 45 0,0
02.07.2020 05:00:00 4,2 3,8 - - 2 1 - - ENE 1010,5 21 0,0
02.07.2020 04:00:00 4,8 4,3 - - 4 2 - - N 1010,5 45 0,0
02.07.2020 03:00:00 5,5 4,5 - - 4 2 - - NNW 1010,4 50 0,0
02.07.2020 02:00:00 7,1 4,7 - - 5 3 - - S 1010,0 50 0,0
02.07.2020 01:00:00 8,8 5,4 - - 5 3 - - SSE 1009,7 50 0,0
02.07.2020 00:00:00 9,4 6,0 - - 4 2 - - SE 1009,4 50 0,0
01.07.2020 23:00:00 9,7 7,6 - - 8 4 - - S 1008,9 50 0,0
01.07.2020 22:00:00 10,5 7,2 - - 4 2 - - SE 1008,3 40 0,0
01.07.2020 21:00:00 10,7 7,0 - - 4 2 - - SSW 1008,0 50 0,0
01.07.2020 20:00:00 11,0 7,9 - - 2 1 - - SW 1007,7 35 0,0
01.07.2020 19:00:00 11,4 7,1 - - 4 2 - - ESE 1007,4 29 0,0
01.07.2020 18:00:00 11,6 6,6 - - 9 5 - - E 1007,2 50 0,0
01.07.2020 17:00:00 11,9 6,8 - - 8 4 - - E 1007,1 35 0,0
01.07.2020 16:00:00 11,8 6,9 - - 8 4 - - ENE 1006,7 35 0,0
01.07.2020 15:00:00 11,9 7,3 - - 9 5 - - E 1006,5 25 0,0
01.07.2020 14:00:00 11,9 8,2 - - 13 7 - - ENE 1006,1 40 0,2
01.07.2020 13:00:00 11,7 7,9 - - 11 6 - - ENE 1005,8 21 0,0
01.07.2020 12:00:00 11,8 8,2 - - 13 7 - - ENE 1005,3 24 0,0
01.07.2020 11:00:00 12,0 7,7 - - 15 8 - - ENE 1004,8 35 0,0
01.07.2020 10:00:00 12,1 8,9 15,7 13,7 13 7 - - ENE 1004,5 45 0,0
01.07.2020 09:00:00 11,3 9,6 - - 5 3 - - N 1004,3 4,9 0,0
01.07.2020 08:00:00 10,8 9,6 - - 5 3 - - NW 1003,9 50 0,0
01.07.2020 07:00:00 10,5 9,5 - - 8 4 - - NNW 1003,6 50 0,2
01.07.2020 06:00:00 10,2 9,0 - - 4 2 - - WNW 1003,4 11 0,4
01.07.2020 05:00:00 11,0 8,6 - - 5 3 - - E 1003,1 50 0,0
01.07.2020 04:00:00 11,3 9,5 - - 8 4 - - E 1003,0 50 0,0
01.07.2020 03:00:00 11,1 10,8 - - 4 2 - - NE 1002,8 35 0,0
01.07.2020 02:00:00 11,1 10,6 - - 2 1 - - NNW 1002,8 30 0,0
01.07.2020 01:00:00 11,3 10,7 - - 0 0 - - N 1003,1 22 0,0
01.07.2020 00:00:00 11,5 10,6 - - 0 0 - - N 1003,1 30 0,0
30.06.2020 23:00:00 12,1 10,8 - - 2 1 - - SE 1003,1 30 0,0
30.06.2020 22:00:00 12,9 10,8 - - 4 2 - - NNE 1002,9 45 0,0
30.06.2020 21:00:00 13,5 10,9 - - 5 3 - - N 1002,5 50 0,0
30.06.2020 20:00:00 14,0 10,2 - - 9 5 - - WNW 1002,2 45 0,0
30.06.2020 19:00:00 14,3 10,2 - - 11 6 - - NW 1002,0 29 0,0
30.06.2020 18:00:00 14,6 10,6 - - 11 6 - - WNW 1002,0 50 0,0
30.06.2020 17:00:00 15,4 10,8 - - 15 8 - - WNW 1001,9 35 0,0
30.06.2020 16:00:00 16,0 10,9 - - 16 9 - - NW 1001,9 30 0,0
30.06.2020 15:00:00 15,2 10,2 - - 13 7 - - WNW 1002,0 40 0,0
30.06.2020 14:00:00 14,8 9,6 - - 11 6 - - NW 1001,9 45 0,0
30.06.2020 13:00:00 14,0 10,1 - - 5 3 - - NNW 1001,8 30 0,0
30.06.2020 12:00:00 14,3 9,7 - - 9 5 - - NW 1001,5 40 0,0
30.06.2020 11:00:00 13,8 9,6 - - 13 7 - - NW 1001,3 50 0,0
30.06.2020 10:00:00 13,4 10,5 15,5 13,7 8 4 - - N 1001,2 45 0,0
30.06.2020 09:00:00 11,8 9,5 - - 8 4 - - NW 1001,1 50 0,0
30.06.2020 08:00:00 11,3 9,9 - - 4 2 - - N 1001,1 40 0,0
30.06.2020 07:00:00 10,9 10,0 - - 8 4 - - N 1000,7 35 0,0
30.06.2020 06:00:00 10,7 9,6 - - 11 6 - - NW 1000,4 50 0,0

tt = temperature
td = dewpoint
tt -20cm = temperature -20cm
tt -100cm = temperature -100cm
ff = wind speed
fx = gusts
dd = wind direction
ppp = reduced air pressure
vv = visibility
rr = precipitation

Next stations